TimeCDT,TemperatureF,Dew PointF,Humidity,Sea Level PressureIn,VisibilityMPH,Wind Direction,Wind SpeedMPH,Gust SpeedMPH,PrecipitationIn,Events,Conditions,WindDirDegrees,DateUTC
12:01 AM,68.0,68.0,100,29.95,1.0,Calm,Calm,-,N/A,,Clear,0,2013-07-24 05:01:00
12:08 AM,68.0,68.0,100,29.95,1.5,Calm,Calm,-,N/A,,Clear,0,2013-07-24 05:08:00
12:11 AM,68.0,68.0,100,29.95,3.0,Calm,Calm,-,N/A,,Clear,0,2013-07-24 05:11:00
12:56 AM,68.0,68.0,100,29.99,10.0,Calm,Calm,-,N/A,,Partly Cloudy,0,2013-07-24 05:56:00
1:49 AM,69.8,69.8,100,29.93,9.0,Calm,Calm,-,N/A,,Mostly Cloudy,0,2013-07-24 06:49:00
1:56 AM,68.9,68.9,100,29.96,7.0,Calm,Calm,-,N/A,,Mostly Cloudy,0,2013-07-24 06:56:00
2:00 AM,69.8,69.8,100,29.92,6.0,Calm,Calm,-,N/A,,Mostly Cloudy,0,2013-07-24 07:00:00
2:07 AM,69.8,69.8,100,29.92,7.0,Calm,Calm,-,N/A,,Overcast,0,2013-07-24 07:07:00
2:28 AM,69.8,69.8,100,29.92,9.0,Calm,Calm,-,N/A,,Mostly Cloudy,0,2013-07-24 07:28:00
2:56 AM,68.9,68.9,100,29.96,8.0,Calm,Calm,-,N/A,,Mostly Cloudy,0,2013-07-24 07:56:00
3:13 AM,69.8,69.8,100,29.91,10.0,Calm,Calm,-,N/A,,Mostly Cloudy,0,2013-07-24 08:13:00
3:30 AM,69.8,69.8,100,29.91,10.0,Calm,Calm,-,N/A,,Scattered Clouds,0,2013-07-24 08:30:00
3:56 AM,68.9,68.9,100,29.96,10.0,Calm,Calm,-,N/A,,Scattered Clouds,0,2013-07-24 08:56:00
4:04 AM,69.8,69.8,100,29.92,10.0,Calm,Calm,-,N/A,,Mostly Cloudy,0,2013-07-24 09:04:00
4:41 AM,69.8,69.8,100,29.91,10.0,Calm,Calm,-,N/A,,Scattered Clouds,0,2013-07-24 09:41:00
4:56 AM,68.9,68.9,100,29.95,10.0,Calm,Calm,-,N/A,,Clear,0,2013-07-24 09:56:00
5:39 AM,69.8,69.8,100,29.91,5.0,Calm,Calm,-,N/A,,Scattered Clouds,0,2013-07-24 10:39:00
5:56 AM,68.9,68.9,100,29.95,10.0,Calm,Calm,-,N/A,,Partly Cloudy,0,2013-07-24 10:56:00
6:27 AM,69.8,69.8,100,29.93,3.0,Calm,Calm,-,N/A,,Mostly Cloudy,0,2013-07-24 11:27:00
6:56 AM,68.9,68.9,100,29.98,7.0,Calm,Calm,-,N/A,,Overcast,0,2013-07-24 11:56:00
7:37 AM,69.8,69.8,100,29.95,1.8,Calm,Calm,-,N/A,,Overcast,0,2013-07-24 12:37:00
7:42 AM,69.8,69.8,100,29.95,1.0,Calm,Calm,-,N/A,,Overcast,0,2013-07-24 12:42:00
7:56 AM,70.0,70.0,100,29.99,1.8,Calm,Calm,-,N/A,,Overcast,0,2013-07-24 12:56:00
8:12 AM,69.8,69.8,100,29.95,1.0,Calm,Calm,-,N/A,,Overcast,0,2013-07-24 13:12:00
8:21 AM,71.6,71.6,100,29.95,0.8,Calm,Calm,-,N/A,,Overcast,0,2013-07-24 13:21:00
8:40 AM,71.6,71.6,100,29.95,1.0,Calm,Calm,-,N/A,,Overcast,0,2013-07-24 13:40:00
8:56 AM,72.0,72.0,100,29.99,1.0,Calm,Calm,-,N/A,,Overcast,0,2013-07-24 13:56:00
9:02 AM,71.6,71.6,100,29.95,1.5,Calm,Calm,-,N/A,,Overcast,0,2013-07-24 14:02:00
9:13 AM,71.6,71.6,100,29.95,2.5,Calm,Calm,-,N/A,,Overcast,0,2013-07-24 14:13:00
9:20 AM,73.4,73.4,100,29.95,4.0,Calm,Calm,-,N/A,,Overcast,0,2013-07-24 14:20:00
9:49 AM,75.2,73.4,94,29.95,10.0,Calm,Calm,-,N/A,,Mostly Cloudy,0,2013-07-24 14:49:00
9:56 AM,77.0,73.9,90,29.99,10.0,Calm,Calm,-,N/A,,Scattered Clouds,0,2013-07-24 14:56:00
2:56 PM,83.8,72.9,69,29.97,10.0,North,3.5,-,N/A,,Mostly Cloudy,10,2013-07-24 19:56:00
3:56 PM,83.8,73.9,72,29.96,10.0,North,5.8,-,N/A,,Partly Cloudy,10,2013-07-24 20:56:00
4:56 PM,81.9,72.9,74,29.94,10.0,Calm,Calm,-,N/A,,Partly Cloudy,0,2013-07-24 21:56:00
5:35 PM,82.4,73.4,74,29.91,10.0,NNW,6.9,-,N/A,,Mostly Cloudy,340,2013-07-24 22:35:00
5:56 PM,81.0,72.9,76,29.95,10.0,Calm,Calm,-,N/A,,Scattered Clouds,0,2013-07-24 22:56:00
6:11 PM,80.6,73.4,79,29.92,2.5,Calm,Calm,-,0.03,Rain,Heavy Rain,0,2013-07-24 23:11:00
6:13 PM,78.8,73.4,83,29.92,1.2,Calm,Calm,-,0.05,Rain,Heavy Rain,0,2013-07-24 23:13:00
6:22 PM,77.0,75.2,94,29.92,2.5,Calm,Calm,-,0.06,Rain,Light Rain,0,2013-07-24 23:22:00
6:29 PM,75.2,71.6,89,29.92,10.0,Calm,Calm,-,0.06,,Partly Cloudy,0,2013-07-24 23:29:00
6:56 PM,74.8,70.9,87,29.98,10.0,Calm,Calm,-,0.06,,Clear,0,2013-07-24 23:56:00
7:56 PM,72.9,72.0,97,29.99,10.0,Calm,Calm,-,N/A,,Clear,0,2013-07-25 00:56:00
8:33 PM,71.6,71.6,100,29.96,1.8,Calm,Calm,-,N/A,,Clear,0,2013-07-25 01:33:00
8:40 PM,71.6,71.6,100,29.96,2.5,Calm,Calm,-,N/A,,Clear,0,2013-07-25 01:40:00
8:56 PM,70.9,70.9,100,29.99,1.2,Calm,Calm,-,N/A,,Clear,0,2013-07-25 01:56:00
9:04 PM,71.6,71.6,100,29.95,2.5,Calm,Calm,-,N/A,,Clear,0,2013-07-25 02:04:00
9:15 PM,71.6,71.6,100,29.95,4.0,Calm,Calm,-,N/A,,Clear,0,2013-07-25 02:15:00
9:33 PM,71.6,71.6,100,29.96,1.8,Calm,Calm,-,N/A,,Clear,0,2013-07-25 02:33:00
9:42 PM,69.8,69.8,100,29.96,3.0,Calm,Calm,-,N/A,,Clear,0,2013-07-25 02:42:00
9:56 PM,70.9,70.9,100,30.00,4.0,Calm,Calm,-,N/A,,Clear,0,2013-07-25 02:56:00
10:26 PM,71.6,71.6,100,29.97,1.8,Calm,Calm,-,N/A,,Clear,0,2013-07-25 03:26:00
10:33 PM,71.6,71.6,100,29.97,1.0,Calm,Calm,-,N/A,,Clear,0,2013-07-25 03:33:00
10:40 PM,71.6,71.6,100,29.97,0.8,Calm,Calm,-,N/A,,Clear,0,2013-07-25 03:40:00
10:45 PM,71.6,71.6,100,29.97,1.2,Calm,Calm,-,N/A,,Mostly Cloudy,0,2013-07-25 03:45:00
10:49 PM,71.6,71.6,100,29.97,2.0,Calm,Calm,-,N/A,,Scattered Clouds,0,2013-07-25 03:49:00
10:56 PM,70.0,70.0,100,30.01,7.0,Calm,Calm,-,N/A,,Scattered Clouds,0,2013-07-25 03:56:00
11:56 PM,70.9,70.9,100,30.01,8.0,Calm,Calm,-,N/A,,Mostly Cloudy,0,2013-07-25 04:56:00